FENGYUN 1C DEB

Satellite information

Favourite Embed

Satellite Type and Status

DEBRISIN ORBIT

Key statistics

Satellite FENGYUN 1C DEB at a glance.

Uptime

9715

Days in orbit

Revolutions

≈ 14.2

Per day

Orbit

SSO

Sun Synchronous Orbit

Inclination

98.7

Latest

Satellite identification and parameters

Extended collection of information and parameters for FENGYUN 1C DEB.

Object identification

Identified? True

Debris? True

Object name: FENGYUN 1C DEB

International designator: 1999-025EYK

Object number (NORAD): 41832

Object ID (CCSDS): 41832

Country: PEOPLES REPUBLIC OF CHINA (PRC)

Current information (Y/N): Y

RCS size: SMALL

Orbital parameters

Period: 101.107 minutes

Inclination: 98.7277 deg

SMA: 7189.221 km

Apoapsis: 850.975 km

Periapsis: 771.198 km

RAAN: 50.1775 deg

Eccentricy: 0.00554834

Argument of periapsis: 227.1633 deg

Mean anomaly: 132.4877 deg

Mean motion: 14.24229498 rev/day

Mean motion (dot): 0.0000576 rev/day2

B* drag term: 0.0024757455 1/REarth

Two-line elements (TLE)

Creation date: Dec. 12, 2025, 10:14 a.m.

Reference frame: TEME

Reference center: EARTH

Epoch: Dec. 12, 2025, 3:38 a.m. UTC

TLE line 0: 0 FENGYUN 1C DEB

TLE line 1: 1 41832U 99025EYK 25346.15174355 .00005760 00000-0 24757-2 0 9999

TLE line 2: 2 41832 98.7277 50.1775 0055483 227.1633 132.4877 14.24229498473421

Live tracking on map

Real-time ground track for satellite FENGYUN 1C DEB.

In-orbit conjunctions

A list of the most updated potential collisions computed for object FENGYUN 1C DEB.

Target Orbit TCA Probability of collision Miss distance Type
EYESAT A SSO 2025-12-13 19:41:01 0.0002336565 140.0 (m) PAYLOAD
COSMOS 1697 LEO 2025-09-29 04:54:57 0.0001050675 770.0 (m) PAYLOAD
THORAD AGENA D DEB SSO 2025-06-05 03:16:16 0.0001078816 264.0 (m) DEBRIS

Associated space launch

Chinese polar orbiting meteorological satellite

FENGYUN 1C DEB was lifted into orbit during the mission ‘Long March 4B | Feng Yun 1C’, on board a Long March 4B space rocket.

The launch took place on May 10, 1999, 1:33 a.m. from Launch Complex 7.

For more information about the launch, click the button.

Launch to space Long March 4B | Feng Yun 1C
Long March 4B | Feng Yun 1C

Agency: N/A

Status: Launch Successful

Launch date: May 10, 1999, 1:33 a.m. UTC

Rocket: Long March 4B

Launch pad: Launch Complex 7

Location: Taiyuan Satellite Launch Center, People's Republic of China

...

Latest news about this satellite

There are no fresh news available about this satellite. Check back as we update our databases every day.


Newsletter sign-up

Weekly statistics, charts and insights to help you stay on top of the space industry.